Weather History for OAKB - February, 2013

Change the Weather History Date:

Saturday, February 2, 2013

  Actual Average Record
Temperature  
Mean Temperature 32 °F -  
Max Temperature 33 °F 43 °F - ()
Min Temperature 32 °F 23 °F - ()
Degree Days  
Heating Degree Days 32    
Moisture  
Dew Point 33 °F    
Average Humidity 100    
Maximum Humidity 100    
Minimum Humidity 93    
Precipitation  
Precipitation 0.00 in 0.08 in - ()
Sea Level Pressure  
Sea Level Pressure 30.21 in    
Wind  
Wind Speed 4 mph ()    
Max Wind Speed 10 mph    
Max Gust Speed -    
Visibility 1.1 miles    
Events Fog , Rain , Snow    
T = Trace of Precipitation, MM = Missing Value Source: Averaged Metar Reports

Daily Weather History Graph

Daily Weather History Graph

Search for Another Location

Airport or City:

Trip Planner

Search our weather history database for the weather conditions in past years. The results will help you decide how hot, cold, wet, or windy it might be!

Date:

Astronomy

Feb. 02, 2013 Rise Set
Actual Time 6:50 AM AFT 5:23 PM AFT
Civil Twilight 6:24 AM AFT 5:49 PM AFT
Nautical Twilight 5:54 AM AFT 6:20 PM AFT
Astronomical Twilight 5:24 AM AFT 6:49 PM AFT
Moon 11:47 PM AFT (2/2) 10:02 AM AFT (2/2)
Length of Visible Light 11h 25m
Length of Day
10h 33m
Waning Gibbous, 64% of the Moon is Illuminated
Feb 2
Waning Gibbous
Feb 3
Last Quarter
Feb 10
New
Feb 18
First Quarter
Feb 26
Full

Hourly Weather History & Observations

Time (AFT) Temp. Windchill Dew Point Humidity Pressure Visibility Wind Dir Wind Speed Gust Speed Precip Events Conditions
12:20 AM 32.0 °F - 32.0 °F 100% 30.24 in 0.6 mi ENE 2.3 mph - N/A Snow Snow
12:44 AM 32.0 °F - 32.0 °F 100% 30.24 in 0.6 mi WSW 2.3 mph - N/A Rain , Snow Light Rain
1:20 AM 32.0 °F 25.6 °F 32.0 °F 100% 30.21 in 0.9 mi SSE 6.9 mph - N/A Rain , Snow Light Rain
2:20 AM 32.0 °F 28.7 °F 32.0 °F 100% 30.21 in 1.2 mi WNW 3.5 mph - N/A Rain , Snow Light Rain
3:20 AM 32.0 °F 28.7 °F 32.0 °F 100% 30.18 in 0.8 mi SE 3.5 mph - N/A Rain Rain
4:20 AM 33.8 °F 29.6 °F 32.0 °F 93% 30.15 in 3.7 mi West 4.6 mph - N/A Rain Light Rain
4:45 AM 33.8 °F - 33.8 °F 100% 30.15 in 1.9 mi South 2.3 mph - N/A Rain Light Rain
5:20 AM 32.0 °F 27.5 °F 32.0 °F 100% 30.15 in 1.3 mi NW 4.6 mph - N/A Rain Rain
6:20 AM 32.0 °F 28.7 °F 32.0 °F 100% 30.18 in 0.9 mi SSE 3.5 mph - N/A Snow Light Snow
6:48 AM 32.0 °F 28.7 °F 32.0 °F 100% 30.18 in 1.1 mi SSW 3.5 mph - N/A Rain , Snow Light Rain
7:20 AM 32.0 °F 27.5 °F 32.0 °F 100% 30.21 in 0.7 mi South 4.6 mph - N/A Rain , Snow Light Rain
7:45 AM 32.0 °F 26.4 °F 32.0 °F 100% 30.21 in 0.4 mi South 5.8 mph - N/A Fog , Rain , Snow Light Rain
8:00 AM 32.0 °F 28.7 °F 32.0 °F 100% 30.21 in 0.2 mi SSE 3.5 mph - N/A Fog , Snow Snow
8:20 AM 32.0 °F - 32.0 °F 100% 30.24 in 0.2 mi SE 2.3 mph - N/A Fog , Snow Snow
9:20 AM 32.0 °F - 32.0 °F 100% 30.24 in 0.2 mi SE 2.3 mph - N/A Fog , Snow Snow
11:20 AM 33.8 °F 27.7 °F 33.8 °F 100% 30.24 in 0.5 mi East 6.9 mph - N/A Fog , Snow Light Snow
12:20 PM 33.8 °F 25.8 °F 33.8 °F 100% 30.24 in 0.7 mi East 10.4 mph - N/A Snow Light Snow
1:20 PM 33.8 °F 30.8 °F 33.8 °F 100% 30.21 in 0.9 mi SE 3.5 mph - N/A Snow Light Snow
2:35 PM 33.8 °F 28.6 °F 33.8 °F 100% 30.21 in 1.0 mi ENE 5.8 mph - N/A Snow Light Snow
3:20 PM 33.8 °F 30.8 °F 33.8 °F 100% 30.21 in 1.0 mi ESE 3.5 mph - N/A   Light Drizzle
4:20 PM 33.8 °F - 33.8 °F 100% 30.21 in 1.6 mi SE 2.3 mph - N/A   Light Drizzle
5:20 PM 33.8 °F 29.6 °F 33.8 °F 100% 30.21 in 1.4 mi East 4.6 mph - N/A   Overcast
6:20 PM 33.8 °F 27.7 °F 33.8 °F 100% 30.21 in 1.2 mi East 6.9 mph - N/A   Overcast
7:20 PM 33.8 °F 30.8 °F 33.8 °F 100% 30.21 in 0.9 mi SE 3.5 mph - N/A   Smoke
8:20 PM 33.8 °F 29.6 °F 33.8 °F 100% 30.21 in 2.2 mi ESE 4.6 mph - N/A   Smoke
9:20 PM 33.8 °F 30.8 °F 33.8 °F 100% 30.21 in 0.9 mi SE 3.5 mph - N/A   Smoke
9:52 PM 33.8 °F 29.6 °F 33.8 °F 100% 30.21 in 1.1 mi East 4.6 mph - N/A   Smoke
10:20 PM 33.8 °F 28.6 °F 33.8 °F 100% 30.21 in 1.4 mi SSE 5.8 mph - N/A   Smoke
11:20 PM 33.8 °F 28.6 °F 33.8 °F 100% 30.21 in 1.1 mi East 5.8 mph - N/A   Smoke